Time,TemperatureF,DewpointF,PressureIn,WindDirection,WindDirectionDegrees,WindSpeedMPH,WindSpeedGustMPH,Humidity,HourlyPrecipIn,Conditions,Clouds,dailyrainin,SoftwareType,DateUTC
2013-06-10 00:03:00,60.0,56.0,-100.00,SSW,195,1.0,2.0,86,-99.99,,,-99.99,,2013-06-10 04:03:00,
2013-06-10 00:13:00,60.0,56.0,-100.00,South,190,1.0,2.0,86,-99.99,,,-99.99,,2013-06-10 04:13:00,
2013-06-10 00:23:00,60.0,56.0,-100.00,SW,230,0.0,3.0,87,-99.99,,,-99.99,,2013-06-10 04:23:00,
2013-06-10 00:33:00,60.0,56.0,-100.00,SW,215,0.0,3.0,87,-99.99,,,-99.99,,2013-06-10 04:33:00,
2013-06-10 00:42:00,59.0,55.0,-100.00,SSW,195,0.0,1.0,87,-99.99,,,-99.99,,2013-06-10 04:42:00,
2013-06-10 00:52:00,59.0,56.0,-100.00,SSW,195,1.0,2.0,89,-99.99,,,-99.99,,2013-06-10 04:52:00,
2013-06-10 01:02:00,59.0,56.0,-100.00,SSW,195,1.0,2.0,89,-99.99,,,-99.99,,2013-06-10 05:02:00,
2013-06-10 01:12:00,59.0,56.0,-100.00,SSW,195,1.0,2.0,89,-99.99,,,-99.99,,2013-06-10 05:12:00,
2013-06-10 01:22:00,59.0,55.0,-100.00,South,180,0.0,1.0,89,-99.99,,,-99.99,,2013-06-10 05:22:00,
2013-06-10 01:32:00,58.0,55.0,-100.00,SSW,195,1.0,2.0,91,-99.99,,,-99.99,,2013-06-10 05:32:00,
2013-06-10 01:42:00,58.0,55.0,-100.00,SSW,195,1.0,2.0,91,-99.99,,,-99.99,,2013-06-10 05:42:00,
2013-06-10 01:52:00,58.0,55.0,-100.00,SW,215,1.0,2.0,91,-99.99,,,-99.99,,2013-06-10 05:52:00,
2013-06-10 02:02:00,58.0,55.0,-100.00,NNE,30,0.0,2.0,91,-99.99,,,-99.99,,2013-06-10 06:02:00,
2013-06-10 02:12:00,57.0,55.0,-100.00,South,190,1.0,1.0,91,-99.99,,,-99.99,,2013-06-10 06:12:00,
2013-06-10 02:22:00,57.0,55.0,-100.00,South,170,1.0,2.0,92,-99.99,,,-99.99,,2013-06-10 06:22:00,
2013-06-10 02:32:00,57.0,55.0,-100.00,East,90,1.0,-999.0,93,-99.99,,,-99.99,,2013-06-10 06:32:00,
2013-06-10 02:42:00,57.0,55.0,-100.00,East,90,1.0,-999.0,93,-99.99,,,-99.99,,2013-06-10 06:42:00,
2013-06-10 02:52:00,57.0,55.0,-100.00,SSE,160,0.0,2.0,93,-99.99,,,-99.99,,2013-06-10 06:52:00,
2013-06-10 03:03:00,57.0,55.0,-100.00,SSW,195,0.0,2.0,93,-99.99,,,-99.99,,2013-06-10 07:03:00,
2013-06-10 03:12:00,57.0,55.0,-100.00,South,175,1.0,2.0,93,-99.99,,,-99.99,,2013-06-10 07:12:00,
2013-06-10 03:22:00,56.0,54.0,-100.00,East,85,0.0,1.0,93,-99.99,,,-99.99,,2013-06-10 07:22:00,
2013-06-10 03:32:00,56.0,54.0,-100.00,SSW,200,2.0,2.0,93,-99.99,,,-99.99,,2013-06-10 07:32:00,
2013-06-10 03:42:00,56.0,54.0,-100.00,SSW,200,2.0,2.0,93,-99.99,,,-99.99,,2013-06-10 07:42:00,
2013-06-10 03:52:00,56.0,54.0,-100.00,SSW,195,1.0,2.0,94,-99.99,,,-99.99,,2013-06-10 07:52:00,
2013-06-10 04:02:00,56.0,54.0,-100.00,SSW,200,1.0,2.0,94,-99.99,,,-99.99,,2013-06-10 08:02:00,
2013-06-10 04:12:00,56.0,54.0,-100.00,SSE,155,0.0,2.0,94,-99.99,,,-99.99,,2013-06-10 08:12:00,
2013-06-10 04:22:00,55.0,54.0,-100.00,SSW,195,1.0,2.0,94,-99.99,,,-99.99,,2013-06-10 08:22:00,
2013-06-10 04:32:00,55.0,53.0,-100.00,South,170,1.0,1.0,94,-99.99,,,-99.99,,2013-06-10 08:32:00,
2013-06-10 04:42:00,55.0,53.0,-100.00,South,170,1.0,1.0,94,-99.99,,,-99.99,,2013-06-10 08:42:00,
2013-06-10 04:52:00,54.0,53.0,-100.00,SSW,210,1.0,1.0,95,-99.99,,,-99.99,,2013-06-10 08:52:00,
2013-06-10 05:02:00,54.0,53.0,-100.00,SSW,210,1.0,1.0,95,-99.99,,,-99.99,,2013-06-10 09:02:00,
2013-06-10 05:12:00,54.0,53.0,-100.00,North,5,0.0,1.0,94,-99.99,,,-99.99,,2013-06-10 09:12:00,
2013-06-10 05:22:00,54.0,53.0,-100.00,South,170,0.0,1.0,95,-99.99,,,-99.99,,2013-06-10 09:22:00,
2013-06-10 05:32:00,54.0,53.0,-100.00,SW,215,1.0,2.0,95,-99.99,,,-99.99,,2013-06-10 09:32:00,
2013-06-10 05:43:00,54.0,52.0,-100.00,SSE,155,1.0,1.0,94,-99.99,,,-99.99,,2013-06-10 09:43:00,
2013-06-10 05:53:00,54.0,52.0,-100.00,SSE,155,0.0,1.0,95,-99.99,,,-99.99,,2013-06-10 09:53:00,
2013-06-10 06:03:00,54.0,52.0,-100.00,SSE,155,0.0,1.0,95,-99.99,,,-99.99,,2013-06-10 10:03:00,
2013-06-10 06:13:00,54.0,52.0,-100.00,WNW,290,1.0,1.0,95,-99.99,,,-99.99,,2013-06-10 10:13:00,
2013-06-10 06:23:00,54.0,53.0,-100.00,SSW,195,0.0,1.0,95,-99.99,,,-99.99,,2013-06-10 10:23:00,
2013-06-10 06:33:00,54.0,53.0,-100.00,WSW,255,1.0,3.0,96,-99.99,,,-99.99,,2013-06-10 10:33:00,
2013-06-10 06:42:00,54.0,53.0,-100.00,WSW,255,1.0,3.0,96,-99.99,,,-99.99,,2013-06-10 10:42:00,
2013-06-10 06:52:00,56.0,55.0,-100.00,WNW,295,1.0,3.0,95,-99.99,,,-99.99,,2013-06-10 10:52:00,
2013-06-10 07:03:00,56.0,55.0,-100.00,WNW,295,1.0,3.0,95,-99.99,,,-99.99,,2013-06-10 11:03:00,
2013-06-10 07:12:00,57.0,56.0,-100.00,WNW,300,1.0,3.0,96,-99.99,,,-99.99,,2013-06-10 11:12:00,
2013-06-10 07:22:00,58.0,57.0,-100.00,SW,235,1.0,2.0,96,-99.99,,,-99.99,,2013-06-10 11:22:00,
2013-06-10 07:32:00,59.0,58.0,-100.00,NW,315,1.0,3.0,96,-99.99,,,-99.99,,2013-06-10 11:32:00,
2013-06-10 07:42:00,59.0,58.0,-100.00,NW,315,1.0,3.0,96,-99.99,,,-99.99,,2013-06-10 11:42:00,
2013-06-10 07:52:00,60.0,58.0,-100.00,WSW,240,0.0,3.0,94,-99.99,,,-99.99,,2013-06-10 11:52:00,
2013-06-10 08:02:00,60.0,59.0,-100.00,East,80,0.0,3.0,94,-99.99,,,-99.99,,2013-06-10 12:02:00,
2013-06-10 08:12:00,60.0,59.0,-100.00,East,80,0.0,3.0,94,-99.99,,,-99.99,,2013-06-10 12:12:00,
2013-06-10 08:22:00,61.0,59.0,-100.00,SE,125,1.0,2.0,93,-99.99,,,-99.99,,2013-06-10 12:22:00,
2013-06-10 08:32:00,65.0,63.0,-100.00,NNW,345,2.0,3.0,93,-99.99,,,-99.99,,2013-06-10 12:32:00,
2013-06-10 08:42:00,63.0,60.0,-100.00,North,355,2.0,3.0,91,-99.99,,,-99.99,,2013-06-10 12:42:00,
2013-06-10 08:52:00,64.0,61.0,-100.00,NNE,30,2.0,5.0,88,-99.99,,,-99.99,,2013-06-10 12:52:00,
2013-06-10 09:02:00,65.0,59.0,-100.00,NE,45,2.0,6.0,81,-99.99,,,-99.99,,2013-06-10 13:02:00,
2013-06-10 09:12:00,66.0,58.0,-100.00,East,85,2.0,6.0,75,-99.99,,,-99.99,,2013-06-10 13:12:00,
2013-06-10 09:22:00,68.0,58.0,-100.00,WSW,245,1.0,7.0,70,-99.99,,,-99.99,,2013-06-10 13:22:00,
2013-06-10 09:32:00,69.0,58.0,-100.00,NE,55,2.0,10.0,69,-99.99,,,-99.99,,2013-06-10 13:32:00,
2013-06-10 09:42:00,69.0,58.0,-100.00,East,100,2.0,8.0,68,-99.99,,,-99.99,,2013-06-10 13:42:00,
2013-06-10 09:52:00,70.0,59.0,-100.00,ESE,110,3.0,9.0,69,-99.99,,,-99.99,,2013-06-10 13:52:00,
2013-06-10 10:02:00,70.0,55.0,-100.00,East,100,3.0,12.0,60,-99.99,,,-99.99,,2013-06-10 14:02:00,
2013-06-10 10:12:00,69.0,56.0,-100.00,SE,130,3.0,9.0,62,-99.99,,,-99.99,,2013-06-10 14:12:00,
2013-06-10 10:22:00,70.0,55.0,-100.00,ESE,105,5.0,10.0,59,-99.99,,,-99.99,,2013-06-10 14:22:00,
2013-06-10 10:32:00,70.0,55.0,-100.00,ENE,70,2.0,10.0,60,-99.99,,,-99.99,,2013-06-10 14:32:00,
2013-06-10 10:42:00,70.0,56.0,-100.00,East,100,2.0,8.0,62,-99.99,,,-99.99,,2013-06-10 14:42:00,
2013-06-10 10:52:00,69.0,55.0,-100.00,SSE,165,2.0,8.0,61,-99.99,,,-99.99,,2013-06-10 14:52:00,
2013-06-10 11:03:00,69.0,57.0,-100.00,SSE,165,2.0,8.0,66,-99.99,,,-99.99,,2013-06-10 15:03:00,
2013-06-10 11:13:00,68.0,55.0,-100.00,ESE,105,2.0,8.0,64,-99.99,,,-99.99,,2013-06-10 15:13:00,
2013-06-10 11:22:00,67.0,56.0,-100.00,ESE,115,1.0,6.0,66,-99.99,,,-99.99,,2013-06-10 15:22:00,
2013-06-10 11:33:00,71.0,59.0,-100.00,West,260,0.0,5.0,65,-99.99,,,-99.99,,2013-06-10 15:33:00,
2013-06-10 11:43:00,71.0,58.0,-100.00,ESE,115,3.0,8.0,64,-99.99,,,-99.99,,2013-06-10 15:43:00,
2013-06-10 11:53:00,69.0,55.0,-100.00,NE,55,3.0,10.0,63,-99.99,,,-99.99,,2013-06-10 15:53:00,
2013-06-10 12:03:00,68.0,56.0,-100.00,East,95,1.0,6.0,67,-99.99,,,-99.99,,2013-06-10 16:03:00,
2013-06-10 12:13:00,68.0,56.0,-100.00,ENE,75,3.0,8.0,65,-99.99,,,-99.99,,2013-06-10 16:13:00,
2013-06-10 12:23:00,68.0,57.0,-100.00,East,90,2.0,9.0,68,-99.99,,,-99.99,,2013-06-10 16:23:00,
2013-06-10 12:43:00,67.0,56.0,-100.00,ENE,75,2.0,8.0,67,-99.99,,,-99.99,,2013-06-10 16:43:00,
2013-06-10 12:52:00,67.0,57.0,-100.00,SE,145,2.0,8.0,70,-99.99,,,-99.99,,2013-06-10 16:52:00,
2013-06-10 13:27:00,66.0,57.0,-100.00,West,275,2.0,9.0,71,-99.99,,,-99.99,,2013-06-10 17:27:00,
2013-06-10 13:38:00,68.0,58.0,-100.00,East,90,2.0,8.0,71,-99.99,,,-99.99,,2013-06-10 17:38:00,
2013-06-10 13:48:00,68.0,58.0,-100.00,East,90,2.0,8.0,71,-99.99,,,-99.99,,2013-06-10 17:48:00,
2013-06-10 13:57:00,68.0,58.0,-100.00,East,90,2.0,8.0,71,-99.99,,,-99.99,,2013-06-10 17:57:00,
2013-06-10 14:08:00,69.0,59.0,-100.00,East,90,1.0,8.0,70,-99.99,,,-99.99,,2013-06-10 18:08:00,
2013-06-10 14:25:00,69.0,59.0,-100.00,East,95,1.0,10.0,70,-99.99,,,-99.99,,2013-06-10 18:25:00,
2013-06-10 14:35:00,69.0,57.0,-100.00,SSE,150,3.0,8.0,66,-99.99,,,-99.99,,2013-06-10 18:35:00,
2013-06-10 14:48:00,69.0,57.0,-100.00,SSE,150,3.0,7.0,66,-99.99,,,-99.99,,2013-06-10 18:48:00,
2013-06-10 14:55:00,69.0,57.0,-100.00,SSE,160,1.0,8.0,67,-99.99,,,-99.99,,2013-06-10 18:55:00,
2013-06-10 15:03:00,70.0,58.0,-100.00,South,170,1.0,9.0,67,-99.99,,,-99.99,,2013-06-10 19:03:00,
2013-06-10 15:33:00,68.0,58.0,-100.00,East,92,10.0,10.0,70,-99.99,,,-99.99,,2013-06-10 19:33:00,
2013-06-10 15:43:00,68.0,58.0,-100.00,East,92,10.0,10.0,70,-99.99,,,-99.99,,2013-06-10 19:43:00,
2013-06-10 15:53:00,69.0,56.0,-100.00,East,85,2.0,9.0,65,-99.99,,,-99.99,,2013-06-10 19:53:00,
2013-06-10 16:03:00,68.0,57.0,-100.00,East,100,2.0,6.0,69,-99.99,,,-99.99,,2013-06-10 20:03:00,
2013-06-10 16:13:00,68.0,58.0,-100.00,SE,125,2.0,10.0,71,-99.99,,,-99.99,,2013-06-10 20:13:00,
2013-06-10 16:23:00,67.0,58.0,-100.00,East,85,2.0,6.0,71,-99.99,,,-99.99,,2013-06-10 20:23:00,
2013-06-10 16:32:00,66.0,57.0,-100.00,SSE,165,2.0,6.0,72,-99.99,,,-99.99,,2013-06-10 20:32:00,
2013-06-10 16:43:00,66.0,57.0,-100.00,SSE,165,2.0,6.0,72,-99.99,,,-99.99,,2013-06-10 20:43:00,
2013-06-10 17:13:00,66.0,58.0,-100.00,East,85,2.0,6.0,74,-99.99,,,-99.99,,2013-06-10 21:13:00,
2013-06-10 20:43:00,60.0,58.0,-100.00,East,90,1.0,5.0,94,-99.99,,,-99.99,,2013-06-11 00:43:00,
2013-06-10 20:52:00,60.0,58.0,-100.00,South,190,1.0,3.0,94,-99.99,,,-99.99,,2013-06-11 00:52:00,
2013-06-10 22:22:00,59.0,59.0,-100.00,East,90,2.0,9.0,100,-99.99,,,-99.99,,2013-06-11 02:22:00,
2013-06-10 22:32:00,58.0,57.0,-100.00,East,84,9.0,9.0,96,-99.99,,,-99.99,,2013-06-11 02:32:00,
2013-06-10 22:52:00,58.0,57.0,-100.00,East,100,2.0,8.0,96,-99.99,,,-99.99,,2013-06-11 02:52:00,
2013-06-10 23:03:00,58.0,57.0,-100.00,East,100,2.0,8.0,96,-99.99,,,-99.99,,2013-06-11 03:03:00,
2013-06-10 23:13:00,58.0,57.0,-100.00,East,100,2.0,8.0,96,-99.99,,,-99.99,,2013-06-11 03:13:00,
2013-06-10 23:22:00,58.0,57.0,-100.00,East,100,2.0,8.0,96,-99.99,,,-99.99,,2013-06-11 03:22:00,
2013-06-10 23:33:00,57.0,56.0,-100.00,East,90,10.0,10.0,96,-99.99,,,-99.99,,2013-06-11 03:33:00,
2013-06-10 23:43:00,57.0,56.0,-100.00,East,90,10.0,10.0,96,-99.99,,,-99.99,,2013-06-11 03:43:00,
2013-06-10 23:53:00,57.0,56.0,-100.00,East,90,10.0,10.0,96,-99.99,,,-99.99,,2013-06-11 03:53:00,